Location: Coupvray
(48.8929°N, 2.7967°E)
Time: 10:52:21
(UTC+00:00)

Okean 3 - Pass Details

Date: 14 July 2020
Orbit: 576 x 601 km, 82.5° (Epoch: 05 August)

Event Time Altitude Azimuth Distance (km) Brightness Sun altitude
Rises 01:49:29 0° 349° (N) 2,805 7.8 -15.0°
Reaches altitude 10° 01:51:41 10° 348° (NNW) 1,903 6.8 -14.8°
Maximum altitude 01:55:52 79° 262° (W) 597 3.4 -14.5°
Enters shadow 01:58:48 19° 177° (S) 1,397 4.9 -14.2°
